Dubai, UAE

2:48 AM +04 on September 22, 2017 (GMT +0400)
Dubai

Weather History for 41194 - April, 2013

Change the Weather History Date:

Saturday, April 13, 2013

  Actual Average Record
Temperature  
Mean Temperature 90 °F -  
Max Temperature 102 °F 93 °F - ()
Min Temperature 78 °F 73 °F - ()
Cooling Degree Days 25    
Growing Degree Days 40 (Base 50)    
Moisture  
Dew Point 52 °F    
Average Humidity 30    
Maximum Humidity 55    
Minimum Humidity 6    
Precipitation  
Precipitation 0.00 in 0.01 in - ()
Sea Level Pressure  
Sea Level Pressure 29.87 in    
Wind  
Wind Speed 5 mph ()    
Max Wind Speed 16 mph    
Max Gust Speed -    
Visibility 5.6 miles    
Events      
T = Trace of Precipitation, MM = Missing Value Source: Averaged Metar Reports

Daily Weather History Graph

Daily Weather History Graph

Search for Another Location

Airport or City:

Trip Planner

Search our weather history database for the weather conditions in past years. The results will help you decide how hot, cold, wet, or windy it might be!

Date:

Astronomy

Apr. 13, 2013 Rise Set
Actual Time 5:58 AM +04 6:40 PM +04
Civil Twilight 5:34 AM +04 7:03 PM +04
Nautical Twilight 5:07 AM +04 7:31 PM +04
Astronomical Twilight 4:39 AM +04 7:59 PM +04
Moon 7:47 AM +04 (4/13) 9:26 PM +04 (4/13)
Length of Visible Light 13h 28m
Length of Day
12h 42m
Waxing Crescent, 8% of the Moon is Illuminated
Apr 13
Waxing Crescent
Apr 18
First Quarter
Apr 25
Full
May 2
Last Quarter
May 10
New

Hourly Weather History & Observations

Time (+04) Temp. Heat Index Dew Point Humidity Pressure Visibility Wind Dir Wind Speed Gust Speed Precip Events Conditions
12:00 AM 84.2 °F - 51.8 °F 33% 29.89 in - East 3.5 mph - N/A   Clear
1:00 AM 84 °F - 52 °F 23% 29.88 in 6 mi 2.3 mph - -  
1:00 AM 84.2 °F - 51.8 °F 33% 29.86 in - Variable 2.3 mph - N/A   Clear
2:00 AM 84.2 °F - 51.8 °F 33% 29.86 in - ESE 3.5 mph - N/A   Clear
3:00 AM 82.4 °F - 50.0 °F 32% 29.83 in - ESE 2.3 mph - N/A   Clear
4:00 AM 82 °F - 50 °F 22% 29.84 in 6 mi East 5.8 mph - -  
4:00 AM 82.4 °F - 50.0 °F 32% 29.83 in - East 5.8 mph - N/A   Clear
5:00 AM 78.8 °F - 51.8 °F 39% 29.83 in - Variable 2.3 mph - N/A   Clear
6:00 AM 80.6 °F - 50.0 °F 34% 29.86 in 5.0 mi South 3.5 mph - N/A   Unknown
7:00 AM 80 °F - 51 °F 26% 29.89 in 5 mi 2.3 mph - -   Widespread Dust
7:00 AM 80.6 °F - 51.8 °F 37% 29.89 in 5.0 mi Variable 2.3 mph - N/A   Unknown
8:00 AM 84.2 °F - 48.2 °F 29% 29.89 in 4.3 mi SSE 4.6 mph - N/A   Unknown
9:00 AM 89.6 °F - 48.2 °F 24% 29.92 in 5.6 mi South 5.8 mph - N/A   Unknown
10:00 AM 93 °F - 44 °F 11% 29.93 in 6 mi SSE 5.8 mph - -  
10:00 AM 93.2 °F - 44.6 °F 19% 29.92 in - SSE 5.8 mph - N/A   Clear
11:00 AM 96.8 °F - 39.2 °F 14% 29.92 in - ESE 3.5 mph - N/A   Clear
12:00 PM 100.4 °F - 32.0 °F 9% 29.89 in - Variable 4.6 mph - N/A   Clear
1:00 PM 101 °F - 40 °F 6% 29.88 in 6 mi SW 4.6 mph - -  
1:00 PM 100.4 °F - 39.2 °F 12% 29.86 in - Variable 4.6 mph - N/A   Clear
2:00 PM 100.4 °F - 35.6 °F 11% 29.86 in - NW 13.8 mph - N/A   Clear
3:00 PM 98.6 °F - 28.4 °F 8% 29.83 in - NW 15.0 mph - N/A   Clear
4:00 PM 90 °F - 65 °F 34% 29.83 in 6 mi NW 16.1 mph - -  
4:00 PM 89.6 °F 92.2 °F 66.2 °F 46% 29.83 in - NW 16.1 mph - N/A   Clear
5:00 PM 89.6 °F 90.1 °F 62.6 °F 40% 29.83 in - NNW 13.8 mph - N/A   Clear
6:00 PM 86.0 °F 87.3 °F 64.4 °F 48% 29.86 in - NNW 12.7 mph - N/A   Clear
7:00 PM 84 °F - 66 °F 45% 29.87 in 6 mi NNW 10.4 mph - -  
7:00 PM 84.2 °F 86.6 °F 66.2 °F 55% 29.86 in - NNW 10.4 mph - N/A   Clear
8:00 PM 86.0 °F 85.4 °F 59.0 °F 40% 29.86 in - NE 5.8 mph - N/A   Clear
9:00 PM 84.2 °F 85.0 °F 62.6 °F 48% 29.89 in - East 8.1 mph - N/A   Clear
10:00 PM 84 °F - 61 °F 35% 29.90 in 6 mi East 6.9 mph - -  
10:00 PM 84.2 °F 84.4 °F 60.8 °F 45% 29.89 in - East 6.9 mph - N/A   Clear
11:00 PM 84.2 °F 83.5 °F 57.2 °F 40% 29.86 in - ESE 6.9 mph - N/A   Clear